N3221H PHNL-PHOG

Flight info

Callsign N3221H
Flight time 0h 22m
Altitude 19000
Route PALAY3 LNY CAMPS4
Aircraft C750/M-SBDE3FGHRWXY/S

Departure

Time 2026-04-22 21:54
Airport Daniel K. Inouye International Airport (PHNL)

Arrival

Time 2026-04-22 22:17
Airport Kahului International Airport (PHOG)
Time Latitude Longitude Altitude Speed Heading
2026-04-22 21:35 21.32852 -157.93260 16 ft 0 kts 359°
2026-04-22 21:49 21.32854 -157.93261 16 ft 2 kts 345°
2026-04-22 21:50 21.32844 -157.93301 16 ft 9 kts 226°
2026-04-22 21:50 21.32783 -157.93343 16 ft 11 kts 214°
2026-04-22 21:50 21.32744 -157.93415 16 ft 12 kts 262°
2026-04-22 21:50 21.32742 -157.93506 16 ft 13 kts 270°
2026-04-22 21:51 21.32742 -157.93607 17 ft 14 kts 270°
2026-04-22 21:51 21.32741 -157.93716 17 ft 15 kts 269°
2026-04-22 21:51 21.32741 -157.93835 17 ft 17 kts 271°
2026-04-22 21:52 21.32743 -157.94100 17 ft 19 kts 271°
2026-04-22 21:52 21.32743 -157.94240 17 ft 18 kts 270°
2026-04-22 21:52 21.32684 -157.94324 18 ft 15 kts 185°
2026-04-22 21:52 21.32587 -157.94312 19 ft 13 kts 159°
2026-04-22 21:53 21.32530 -157.94252 21 ft 11 kts 108°
2026-04-22 21:53 21.32528 -157.94222 19 ft 0 kts 90°
2026-04-22 21:54 21.32527 -157.94183 19 ft 33 kts 91°
2026-04-22 21:54 21.32527 -157.93445 38 ft 147 kts 92°
2026-04-22 21:54 21.32517 -157.92286 654 ft 162 kts 98°
2026-04-22 21:55 21.32198 -157.91060 1412 ft 182 kts 112°
2026-04-22 21:55 21.31441 -157.89908 2224 ft 197 kts 131°
2026-04-22 21:55 21.30368 -157.88993 3232 ft 198 kts 146°
2026-04-22 21:55 21.29039 -157.88319 3964 ft 225 kts 158°
2026-04-22 21:56 21.27510 -157.87754 4872 ft 239 kts 157°
2026-04-22 21:56 21.26094 -157.86750 5778 ft 252 kts 136°
2026-04-22 21:56 21.25028 -157.85212 6610 ft 265 kts 115°
2026-04-22 21:56 21.24287 -157.83332 7307 ft 279 kts 111°
2026-04-22 21:57 21.23501 -157.81406 8163 ft 286 kts 114°
2026-04-22 21:57 21.22561 -157.79488 8956 ft 292 kts 118°
2026-04-22 21:57 21.21597 -157.77563 9898 ft 297 kts 118°
2026-04-22 21:57 21.20557 -157.75641 10896 ft 298 kts 120°
2026-04-22 21:58 21.19457 -157.73697 11593 ft 316 kts 119°
2026-04-22 21:58 21.18398 -157.71491 11605 ft 351 kts 115°
2026-04-22 21:58 21.17293 -157.69116 12005 ft 355 kts 116°
2026-04-22 21:58 21.16023 -157.66805 12620 ft 364 kts 121°
2026-04-22 21:59 21.14658 -157.64506 13241 ft 368 kts 120°
2026-04-22 21:59 21.13356 -157.62166 13855 ft 371 kts 118°
2026-04-22 21:59 21.12060 -157.59716 14433 ft 375 kts 118°
2026-04-22 21:59 21.10739 -157.57287 15021 ft 380 kts 119°
2026-04-22 22:00 21.09363 -157.54855 15721 ft 385 kts 120°
2026-04-22 22:00 21.07948 -157.52390 15963 ft 405 kts 120°
2026-04-22 22:00 21.06490 -157.49816 16196 ft 387 kts 119°
2026-04-22 22:00 21.05132 -157.47399 16922 ft 378 kts 119°
2026-04-22 22:01 21.03764 -157.44968 17679 ft 386 kts 120°
2026-04-22 22:01 21.02358 -157.42487 18451 ft 393 kts 120°
2026-04-22 22:01 21.00924 -157.39958 18945 ft 403 kts 120°
2026-04-22 22:01 20.99451 -157.37355 18549 ft 408 kts 120°
2026-04-22 22:02 20.97991 -157.34778 18075 ft 404 kts 120°
2026-04-22 22:02 20.96538 -157.32215 17567 ft 400 kts 120°
2026-04-22 22:02 20.95100 -157.29679 17053 ft 397 kts 120°
2026-04-22 22:02 20.93676 -157.27168 16554 ft 393 kts 120°
2026-04-22 22:03 20.92262 -157.24676 16057 ft 390 kts 120°
2026-04-22 22:03 20.90862 -157.22209 15446 ft 386 kts 120°
2026-04-22 22:03 20.89475 -157.19769 14893 ft 381 kts 120°
2026-04-22 22:03 20.88108 -157.17365 14327 ft 377 kts 120°
2026-04-22 22:04 20.86751 -157.14976 13697 ft 373 kts 120°
2026-04-22 22:04 20.85409 -157.12616 13020 ft 370 kts 120°
2026-04-22 22:04 20.84074 -157.10270 12359 ft 368 kts 120°
2026-04-22 22:04 20.82752 -157.07947 11714 ft 360 kts 121°
2026-04-22 22:05 20.81486 -157.05725 11082 ft 342 kts 121°
2026-04-22 22:05 20.80272 -157.03595 10450 ft 329 kts 121°
2026-04-22 22:05 20.79101 -157.01538 9790 ft 318 kts 121°
2026-04-22 22:05 20.77966 -156.99548 9102 ft 309 kts 121°
2026-04-22 22:06 20.76862 -156.97609 8494 ft 302 kts 121°
2026-04-22 22:06 20.76046 -156.95582 7816 ft 294 kts 107°
2026-04-22 22:06 20.75510 -156.93501 7228 ft 288 kts 104°
2026-04-22 22:06 20.75006 -156.91476 6657 ft 283 kts 105°
2026-04-22 22:07 20.74460 -156.89469 6050 ft 280 kts 106°
2026-04-22 22:07 20.73908 -156.87491 5442 ft 276 kts 106°
2026-04-22 22:07 20.73380 -156.85540 4836 ft 271 kts 105°
2026-04-22 22:07 20.72865 -156.83619 4213 ft 267 kts 105°
2026-04-22 22:08 20.72354 -156.81725 3592 ft 263 kts 105°
2026-04-22 22:08 20.71847 -156.79859 3055 ft 259 kts 105°
2026-04-22 22:08 20.71364 -156.78079 3026 ft 245 kts 105°
2026-04-22 22:08 20.70915 -156.76300 3008 ft 255 kts 99°
2026-04-22 22:09 20.70849 -156.74402 2994 ft 259 kts 88°
2026-04-22 22:09 20.70935 -156.72474 2942 ft 261 kts 86°
2026-04-22 22:09 20.71012 -156.70516 2721 ft 266 kts 87°
2026-04-22 22:09 20.71078 -156.68550 2481 ft 263 kts 87°
2026-04-22 22:10 20.71139 -156.66660 2391 ft 242 kts 87°
2026-04-22 22:10 20.71193 -156.64911 2370 ft 231 kts 87°
2026-04-22 22:10 20.71248 -156.63231 2374 ft 224 kts 87°
2026-04-22 22:10 20.71299 -156.61600 2381 ft 212 kts 87°
2026-04-22 22:11 20.71347 -156.60075 2377 ft 200 kts 87°
2026-04-22 22:11 20.71611 -156.58628 2368 ft 200 kts 71°
2026-04-22 22:11 20.72101 -156.57228 2380 ft 196 kts 67°
2026-04-22 22:11 20.72813 -156.56058 2386 ft 182 kts 53°
2026-04-22 22:12 20.73665 -156.55074 2369 ft 181 kts 39°
2026-04-22 22:12 20.74676 -156.54299 2386 ft 183 kts 34°
2026-04-22 22:12 20.75672 -156.53557 2361 ft 160 kts 34°
2026-04-22 22:12 20.76561 -156.52891 2379 ft 159 kts 35°
2026-04-22 22:13 20.77411 -156.52252 2367 ft 140 kts 34°
2026-04-22 22:13 20.78199 -156.51663 2384 ft 139 kts 34°
2026-04-22 22:13 20.78988 -156.51060 2378 ft 141 kts 35°
2026-04-22 22:13 20.79790 -156.50435 2304 ft 144 kts 36°
2026-04-22 22:14 20.80559 -156.49807 2070 ft 133 kts 36°
2026-04-22 22:14 20.81287 -156.49243 1846 ft 127 kts 33°
2026-04-22 22:14 20.82015 -156.48731 1615 ft 125 kts 32°
2026-04-22 22:14 20.82750 -156.48226 1418 ft 124 kts 32°
2026-04-22 22:15 20.83444 -156.47706 1287 ft 121 kts 34°
2026-04-22 22:15 20.84135 -156.47179 1205 ft 123 kts 34°
2026-04-22 22:15 20.84847 -156.46642 1031 ft 126 kts 33°
2026-04-22 22:15 20.85561 -156.46110 928 ft 123 kts 34°
2026-04-22 22:16 20.86269 -156.45589 752 ft 126 kts 34°
2026-04-22 22:16 20.86973 -156.45063 571 ft 121 kts 33°
2026-04-22 22:16 20.87648 -156.44568 363 ft 115 kts 33°
2026-04-22 22:16 20.88294 -156.44084 201 ft 112 kts 32°
2026-04-22 22:17 20.88932 -156.43617 61 ft 108 kts 32°
2026-04-22 22:17 20.89472 -156.43219 46 ft 80 kts 35°
2026-04-22 22:17 20.89793 -156.42981 34 ft 39 kts 35°
2026-04-22 22:17 20.90008 -156.42827 27 ft 36 kts 33°
2026-04-22 22:18 20.90123 -156.42716 27 ft 12 kts 76°
2026-04-22 22:18 20.90096 -156.42647 27 ft 9 kts 136°
2026-04-22 22:18 20.90044 -156.42647 28 ft 8 kts 211°
2026-04-22 22:18 20.89995 -156.42683 29 ft 10 kts 215°
2026-04-22 22:19 20.89932 -156.42729 30 ft 11 kts 214°
2026-04-22 22:19 20.89881 -156.42735 31 ft 7 kts 130°
2026-04-22 22:19 20.89887 -156.42712 31 ft 4 kts 23°
2026-04-22 22:19 20.89897 -156.42720 31 ft 5 kts 309°
2026-04-22 22:20 20.89899 -156.42723 31 ft 0 kts 306°